Date String (YYYY-MM-DD hh:mm:ss) UTC,Instrument flags,Ambient pressure (hPa),Sample flow (lpm),Bypass flow (lpm),Sample temperature (°C),Ambient temperature (°C),ASC tube jacket temperature (°C),LED temperature (°C),Box temperature (°C),Sample RH (%),Span deviation,Mass concentration (μg/m³),Mass concentration (μg/m³),Mass concentration (μg/m³)
DateTimeUTC,F1_M11,P_M11,Q1_M11,Q2_M11,T1_M11,T2_M11,T3_M11,T4_M11,T5_M11,U1_M11,ZSPAN_M11,X2_M11,X0_M11,X1_M11
2022-07-22 10:00:00,,0827.7,5.00,0.00,29.7,28.1,00.0,38.5,31.6,15.0,0000.0,0006.38,0012.94,0005.36
2022-07-22 10:01:00,,0827.7,4.99,0.00,29.7,28.2,00.0,38.5,31.6,15.0,0000.0,0006.36,0012.91,0005.32
2022-07-22 10:02:00,,0827.7,5.00,0.00,29.8,28.3,00.0,38.5,31.7,14.9,0000.0,0006.29,0012.29,0005.29
2022-07-22 10:03:00,,0827.7,5.00,0.00,29.8,28.4,00.0,38.5,31.7,15.0,0000.0,0006.27,0012.27,0005.27
2022-07-22 10:04:00,,0827.7,4.99,0.00,29.8,28.5,00.0,38.5,31.7,14.7,0000.0,0006.27,0012.13,0005.25
2022-07-22 10:05:00,,0827.7,5.01,0.00,29.8,28.6,00.0,38.6,31.8,14.7,0000.0,0006.26,0012.02,0005.22
2022-07-22 10:06:00,,0827.8,4.99,0.00,29.8,28.7,00.0,38.6,31.8,14.7,0000.0,0006.22,0011.92,0005.21
2022-07-22 10:07:00,,0827.7,5.00,0.00,29.9,28.7,00.0,38.6,31.8,14.6,0000.0,0006.21,0011.63,0005.20
2022-07-22 10:08:00,,0827.7,5.00,0.00,29.9,28.8,00.0,38.6,31.9,14.6,0000.0,0006.14,0011.44,0005.20
2022-07-22 10:09:00,,0827.7,5.01,0.00,29.9,28.9,00.0,38.6,31.9,14.5,0000.0,0006.10,0011.71,0005.19
2022-07-22 10:10:00,,0827.7,4.99,0.00,29.9,28.8,00.0,38.6,31.9,14.6,0000.0,0006.10,0012.19,0005.18
2022-07-22 10:11:00,,0827.7,5.00,0.00,29.9,28.1,00.0,38.6,31.8,14.5,0000.0,0006.08,0011.63,0005.18
2022-07-22 10:12:00,,0827.7,5.02,0.00,29.9,27.7,00.0,38.5,31.7,14.5,0000.0,0006.10,0011.61,0005.19
2022-07-22 10:13:00,,0827.7,4.99,0.00,29.9,27.6,00.0,38.5,31.6,14.6,0000.0,0006.13,0011.80,0005.20
2022-07-22 10:14:00,,0827.7,5.00,0.00,29.8,27.7,00.0,38.5,31.6,14.7,0000.0,0006.14,0011.69,0005.19
2022-07-22 10:15:00,,0827.8,5.00,0.00,29.8,27.8,00.0,38.5,31.5,14.7,0000.0,0006.18,0012.03,0005.19
2022-07-22 10:16:00,,0827.8,5.01,0.00,29.8,27.9,00.0,38.5,31.5,14.7,0000.0,0006.19,0012.35,0005.19
2022-07-22 10:17:00,,0827.8,5.00,0.00,29.8,28.0,00.0,38.5,31.6,14.7,0000.0,0006.16,0012.41,0005.17
2022-07-22 10:18:00,,0827.8,5.00,0.00,29.8,28.2,00.0,38.5,31.6,14.8,0000.0,0006.12,0012.64,0005.15
2022-07-22 10:19:00,,0827.7,4.99,0.00,29.8,28.3,00.0,38.5,31.6,14.8,0000.0,0006.16,0012.71,0005.17
2022-07-22 10:20:00,,0827.8,5.01,0.00,29.8,28.4,00.0,38.5,31.7,14.8,0000.0,0006.22,0012.51,0005.17
2022-07-22 10:21:00,,0827.8,4.99,0.00,29.8,28.5,00.0,38.6,31.7,14.8,0000.0,0006.19,0011.68,0005.17
2022-07-22 10:22:00,,0827.8,5.00,0.00,29.8,28.6,00.0,38.6,31.8,14.7,0000.0,0006.17,0011.57,0005.16
2022-07-22 10:23:00,,0827.8,4.99,0.00,29.8,28.6,00.0,38.6,31.7,14.7,0000.0,0006.16,0011.56,0005.15
2022-07-22 10:24:00,,0827.8,5.01,0.00,29.9,28.7,00.0,38.6,31.8,14.7,0000.0,0006.14,0011.60,0005.16
2022-07-22 10:25:00,,0827.8,4.99,0.00,29.9,28.8,00.0,38.6,31.8,15.0,0000.0,0006.14,0011.97,0005.16
2022-07-22 10:26:00,,0827.7,5.01,0.00,29.9,28.8,00.0,38.6,31.9,15.1,0000.0,0006.11,0011.83,0005.16
2022-07-22 10:27:00,,0827.7,5.00,0.00,29.9,28.4,00.0,38.6,31.9,15.2,0000.0,0006.08,0011.83,0005.18
2022-07-22 10:28:00,,0827.7,5.00,0.00,29.9,27.4,00.0,38.5,31.7,15.1,0000.0,0006.11,0012.26,0005.21
2022-07-22 10:29:00,,0827.7,5.00,0.00,29.8,27.0,00.0,38.5,31.6,15.0,0000.0,0006.17,0012.64,0005.24
2022-07-22 10:30:00,,0827.8,5.00,0.00,29.8,26.9,00.0,38.5,31.4,15.0,0000.0,0006.17,0012.68,0005.25
2022-07-22 10:31:00,,0827.7,5.00,0.00,29.7,27.0,00.0,38.5,31.4,15.1,0000.0,0006.15,0013.21,0005.26
2022-07-22 10:32:00,,0827.7,5.01,0.00,29.6,27.2,00.0,38.4,31.3,15.2,0000.0,0006.17,0013.42,0005.28
2022-07-22 10:33:00,,0827.7,5.00,0.00,29.6,27.4,00.0,38.4,31.3,15.7,0000.0,0006.23,0014.12,0005.31
2022-07-22 10:34:00,,0827.8,5.00,0.00,29.6,27.6,00.0,38.4,31.4,16.0,0000.0,0006.26,0014.17,0005.33
2022-07-22 10:35:00,,0827.8,5.00,0.00,29.6,27.7,00.0,38.4,31.4,16.2,0000.0,0006.31,0014.32,0005.36
2022-07-22 10:36:00,,0827.7,4.99,0.00,29.6,27.9,00.0,38.4,31.4,16.0,0000.0,0006.33,0014.64,0005.38
2022-07-22 10:37:00,,0827.7,5.00,0.00,29.6,28.0,00.0,38.4,31.4,16.2,0000.0,0006.36,0014.79,0005.40
2022-07-22 10:38:00,,0827.7,5.01,0.00,29.6,28.1,00.0,38.4,31.5,16.2,0000.0,0006.43,0014.67,0005.41
2022-07-22 10:39:00,,0827.8,4.99,0.00,29.6,28.2,00.0,38.4,31.5,16.1,0000.0,0006.53,0014.66,0005.42
2022-07-22 10:40:00,,0827.8,5.00,0.00,29.6,28.3,00.0,38.4,31.5,16.0,0000.0,0006.49,0014.35,0005.41
2022-07-22 10:41:00,,0827.8,4.99,0.00,29.7,28.4,00.0,38.4,31.6,15.9,0000.0,0006.54,0014.50,0005.42
2022-07-22 10:42:00,,0827.7,5.00,0.00,29.7,28.5,00.0,38.4,31.6,15.8,0000.0,0006.61,0014.35,0005.44
2022-07-22 10:43:00,,0827.8,5.00,0.00,29.7,28.5,00.0,38.5,31.7,15.7,0000.0,0006.64,0014.59,0005.45
2022-07-22 10:44:00,,0827.7,5.00,0.00,29.7,28.6,00.0,38.5,31.7,15.8,0000.0,0006.65,0014.49,0005.47
2022-07-22 10:45:00,,0827.7,5.01,0.00,29.8,28.7,00.0,38.5,31.7,15.8,0000.0,0006.69,0015.72,0005.48
2022-07-22 10:46:00,,0827.7,4.99,0.00,29.8,28.7,00.0,38.5,31.7,15.7,0000.0,0006.69,0015.49,0005.49
2022-07-22 10:47:00,,0827.7,5.00,0.00,29.8,28.7,00.0,38.5,31.7,15.7,0000.0,0006.75,0014.82,0005.51
2022-07-22 10:48:00,,0827.7,4.99,0.00,29.8,28.8,00.0,38.5,31.8,15.8,0000.0,0006.78,0014.65,0005.52
2022-07-22 10:49:00,,0827.7,5.01,0.00,29.9,28.8,00.0,38.6,31.9,15.9,0000.0,0006.73,0014.74,0005.52
2022-07-22 10:50:00,,0827.7,5.01,0.00,29.9,28.7,00.0,38.6,31.9,16.0,0000.0,0006.66,0014.94,0005.52
2022-07-22 10:51:00,,0827.7,5.00,0.00,29.9,27.9,00.0,38.5,31.8,15.6,0000.0,0006.70,0015.45,0005.53
2022-07-22 10:52:00,,0827.7,5.01,0.00,29.9,27.5,00.0,38.5,31.7,15.6,0000.0,0006.69,0015.31,0005.54
2022-07-22 10:53:00,,0827.7,4.99,0.00,29.8,27.5,00.0,38.5,31.6,15.7,0000.0,0006.64,0015.49,0005.53
2022-07-22 10:54:00,,0827.7,5.00,0.00,29.7,27.5,00.0,38.5,31.5,15.4,0000.0,0006.65,0015.29,0005.54
2022-07-22 10:55:00,,0827.6,4.99,0.00,29.7,27.7,00.0,38.5,31.5,15.8,0000.0,0006.65,0015.13,0005.54
2022-07-22 10:56:00,,0827.6,5.01,0.00,29.7,27.8,00.0,38.5,31.5,16.3,0000.0,0006.66,0014.02,0005.54
2022-07-22 10:57:00,,0827.6,5.00,0.00,29.7,27.9,00.0,38.5,31.5,16.3,0000.0,0006.64,0013.85,0005.54
2022-07-22 10:58:00,,0827.6,5.01,0.00,29.7,28.1,00.0,38.5,31.5,16.2,0000.0,0006.61,0013.96,0005.53
2022-07-22 10:59:00,,0827.7,5.00,0.00,29.7,28.2,00.0,38.5,31.6,15.9,0000.0,0006.50,0014.03,0005.51
